This is the latest recevied weather packets stored in our database for station/object KA1BMF-13. If no packets are shown the sender has not sent any weather packets the latest 10 day(s).
| Time | Temp. | Humidity | Pressure | Rain* | Wind** | Luminosity | Snow |
|---|---|---|---|---|---|---|---|
| 1787851516 | 25° C | 75% | 1016.2 hPa | 0 mm | - | 307 W/m² | - |
| 1787850919 | 25° C | 76% | 1016.1 hPa | 0 mm | - | 212 W/m² | - |
| 1787850319 | 25° C | 76% | 1016.4 hPa | 0 mm | - | 206 W/m² | - |
| 1787849719 | 25.56° C | 77% | 1016.9 hPa | 0 mm | - | 265 W/m² | - |
| 1787849117 | 25.56° C | 77% | 1017 hPa | 0 mm | - | 298 W/m² | - |
| 1787848517 | 25.56° C | 77% | 1016.8 hPa | 0 mm | - | 342 W/m² | - |
| 1787847917 | 25° C | 79% | 1017 hPa | 0 mm | - | 517 W/m² | - |
| 1787847320 | 25° C | 81% | 1017.2 hPa | 0 mm | - | 570 W/m² | - |
| 1787846720 | 24.44° C | 82% | 1017.6 hPa | 0 mm | - | 474 W/m² | - |
| 1787846128 | 24.44° C | 83% | 1017.6 hPa | 0 mm | - | 337 W/m² | - |
| 1787845528 | 24.44° C | 84% | 1017.5 hPa | 0 mm | - | 285 W/m² | - |
| 1787844928 | 24.44° C | 86% | 1017.6 hPa | 0 mm | - | 369 W/m² | - |
| 1787844328 | 23.89° C | 87% | 1017.7 hPa | 0 mm | - | 295 W/m² | - |
| 1787843728 | 23.89° C | 88% | 1017.7 hPa | 0 mm | - | 280 W/m² | - |
| 1787843128 | 23.89° C | 89% | 1017.8 hPa | 0 mm | - | 232 W/m² | - |
| 1787842528 | 23.33° C | 88% | 1017.8 hPa | 0 mm | - | 145 W/m² | - |
| 1787841929 | 23.33° C | 88% | 1017.8 hPa | 0 mm | - | 98 W/m² | - |
| 1787841329 | 23.33° C | 87% | 1017.4 hPa | 0 mm | - | 104 W/m² | - |
| 1787840729 | 23.33° C | 87% | 1017.5 hPa | 0 mm | - | 133 W/m² | - |
| 1787840129 | 23.33° C | 87% | 1017.8 hPa | 0 mm | - | 88 W/m² | - |
| 1787839529 | 23.89° C | 86% | 1017.8 hPa | 0 mm | - | 109 W/m² | - |
| 1787838930 | 23.89° C | 86% | 1017.8 hPa | 0 mm | - | 192 W/m² | - |
| 1787838330 | 23.89° C | 85% | 1017.7 hPa | 0 mm | - | 212 W/m² | - |
| 1787837717 | 23.89° C | 85% | 1017.6 hPa | 0 mm | - | 196 W/m² | - |
| 1787837117 | 23.33° C | 87% | 1017.7 hPa | 0 mm | - | 228 W/m² | - |
* Rain latest hour (hover to see other rain measurements)
** Current wind speed in m/s (hover to see current wind gust speed)